Weather in Torquay

United Kingdom     50°28′21″N   3°32′42″W
temp.,
°C
wind,
m/s
gust,
m/s
humid.,
%
clouds,
%
prec.,
mm/h
press.,
hPa
HPBL,
m
26 february, fri
fri2600:00+5nw35820 0.0 1035199
03:00+5nw23820 0.0 1036139
06:00+4nw22820 0.0 103698
09:00+6nnw22761 0.0 1037105
12:00+8e21690 0.0 1039387
15:00+8sse22690 0.0 1038299
18:00+7sw23780 0.0 103888
21:00+6w22800 0.0 104057
27 february, sat
sat2700:00+5nnw33840 0.0 104190
03:00+5nnw34820 0.0 1040132
06:00+5nnw33800 0.0 1041101
09:00+6nnw33750 0.0 1041141
12:00+8ne23650 0.0 1041361
15:00+9ene12650 0.0 1040364
18:00+7ne22818 0.0 103939
21:00+6n458781 0.0 1039155
28 february, sun
sun2800:00+6nne458951 0.0 1039186
03:00+6ne46891 0.0 1037262
06:00+5ne46903 0.0 1037248
09:00+6nne469025 0.0 1036323
12:00+8ene578539 0.0 1036502
15:00+9ene578216 0.0 1034633
18:00+8ene588747 0.1 1033539
21:00+8ene798795 0.1 1033591
1 march, mon
mon100:00+7ene7108663 0.1 1033457
03:00+6ene798821 0.0 1031539
06:00+5ene689148 0.0 1030429
09:00+6ene688899 0.0 1030533
12:00+7e688595 0.0 1029611
15:00+8e788164 0.1 1027708
18:00+7e798132 0.1 1026581
21:00+7ese68852 0.0 1027417
2 march, tue
tue200:00+8e479012 0.0 1026243
03:00+8e469213 0.0 1025133
06:00+8ese479318 0.0 1025174
09:00+9se479141 0.0 1025314
12:00+10se478934 0.0 1026330
15:00+10sse579041 0.0 1025365
18:00+9se239356 0.0 102648
21:00+9sse229446 0.0 102726